GFSGBSN_925_spd_021.txt.gz
Wind_Speed
18 19 22 24 20 17 19 22 20 19 18 17 16 16 16 19 20 20 18 19 18 17 16 15 17 16 7 4 9 6 1 9 11 9 9 9 7 7 8 5 8 7 4 9 12 18 3
19 20 19 20 21 22 20 20 22 20 19 18 17 16 17 18 20 20 20 18 18 15 14 14 15 10 3 5 3 3 4 13 8 9 10 14 8 7 8 8 6 4 4 17 11 14 8
21 20 19 19 18 20 22 22 21 21 20 18 17 16 17 18 20 21 22 19 18 14 12 12 13 7 5 15 6 3 3 10 10 14 6 20 9 7 8 9 12 5 5 2 10 18 8
25 24 23 21 20 18 20 23 21 21 21 18 18 17 17 18 19 21 21 18 16 12 11 11 9 3 7 9 3 14 10 11 12 13 16 23 14 4 4 8 9 4 3 1 3 17 9
27 26 25 24 22 21 20 23 24 21 21 19 18 17 17 18 19 21 20 17 14 11 9 6 5 4 9 14 7 16 19 15 21 15 13 12 6 1 7 4 5 2 3 3 3 10 6
28 28 26 27 25 23 21 20 25 23 21 20 18 17 18 17 18 20 19 15 10 12 4 2 9 6 9 6 12 10 19 17 5 4 3 2 1 1 4 1 3 3 1 7 9 7 8
32 29 27 27 27 25 23 20 19 24 22 19 18 17 17 16 17 17 15 7 2 1 3 9 6 5 2 16 8 4 13 9 5 5 3 5 2 4 5 4 7 7 6 6 7 9 7
35 33 30 28 29 29 27 24 20 21 22 20 18 17 16 14 15 13 7 5 5 5 7 19 20 18 26 18 3 7 17 6 5 4 0 2 3 1 5 12 9 7 11 11 6 6 4
36 34 33 30 29 28 26 25 24 21 23 21 19 17 15 12 13 12 13 20 15 16 3 9 11 8 8 10 6 11 12 8 4 6 4 3 5 6 7 13 12 1 2 5 5 3 1
40 36 33 32 31 28 27 25 24 24 19 21 18 17 14 10 7 8 8 18 9 5 3 6 11 6 7 11 8 14 14 7 2 1 3 3 6 2 8 14 9 5 2 3 2 2 2
44 41 33 33 32 32 31 27 27 24 23 20 19 19 17 14 7 4 10 11 6 4 3 6 11 7 8 9 2 6 23 5 6 4 3 7 5 5 7 8 4 5 5 1 3 1 4
43 41 39 36 34 34 33 29 28 26 25 20 19 21 17 13 15 21 12 15 5 1 6 3 9 9 10 9 10 7 4 2 7 8 4 7 6 3 4 6 2 6 3 3 4 3 1
41 40 38 37 37 34 36 36 30 29 25 24 21 24 24 16 5 8 9 4 2 4 5 6 15 10 12 8 10 8 8 6 5 4 2 6 8 2 2 6 6 1 4 3 4 5 3
43 43 39 38 35 30 31 36 33 30 27 26 23 26 27 26 22 12 5 2 8 10 11 2 10 11 10 8 9 10 7 8 10 6 4 5 5 4 5 5 5 3 6 4 5 1 5
48 49 44 38 36 35 34 36 40 32 28 26 22 27 15 29 25 10 3 9 8 6 12 4 9 8 9 11 8 9 8 8 10 9 7 4 1 6 9 8 1 4 2 6 6 3 2
44 39 40 33 33 34 37 40 42 35 30 26 21 14 14 25 19 9 5 12 6 15 10 7 8 8 8 12 10 11 9 9 9 12 8 5 3 2 9 17 13 3 3 4 3 5 4
45 41 37 34 37 37 36 38 42 37 32 29 15 6 14 25 17 4 13 10 13 21 13 6 11 8 9 7 16 6 8 9 9 6 9 5 5 5 5 8 9 1 2 3 3 5 4
44 42 38 36 35 41 40 34 41 39 35 34 7 8 27 39 6 5 15 11 9 20 14 13 4 7 8 6 5 9 9 1 7 14 13 12 6 5 13 11 8 4 6 5 5 4 2
47 44 41 37 38 36 40 34 38 43 43 32 4 5 30 32 12 12 7 14 14 21 18 8 2 3 2 5 3 8 3 4 6 3 5 3 0 3 8 5 5 4 5 4 4 3 5
45 42 40 37 36 38 40 43 35 43 47 30 4 9 6 8 11 18 18 17 21 14 20 19 7 6 5 5 15 7 3 2 4 4 3 6 2 6 6 7 3 3 4 5 5 4 3
46 43 39 37 35 39 39 39 36 44 48 31 4 10 8 13 16 15 19 14 19 15 16 11 7 9 7 5 2 7 5 4 3 3 3 4 4 1 3 5 5 2 4 6 5 6 7
44 42 41 41 40 42 41 38 39 45 47 33 4 8 5 4 15 15 20 21 22 19 15 17 8 11 8 5 6 7 8 4 5 1 3 1 1 2 2 6 7 4 7 7 7 5 2
41 42 41 41 42 40 39 38 40 46 47 8 9 7 7 8 18 16 22 23 20 17 11 14 9 5 6 4 6 4 8 9 6 7 5 5 5 3 3 4 6 6 7 6 6 5 3
41 40 41 39 39 40 38 38 38 45 50 13 19 5 4 7 15 23 21 20 26 22 10 11 8 8 3 9 7 8 14 15 12 8 4 5 4 3 3 3 2 8 5 5 5 3 6
38 39 35 35 40 38 37 39 39 43 45 33 12 4 1 3 14 18 21 26 16 13 16 3 1 8 10 5 4 4 5 5 4 4 7 3 4 2 4 3 5 8 4 3 3 5 6
34 31 30 34 38 37 39 41 40 40 35 39 32 20 5 3 16 24 24 20 12 7 3 3 8 3 7 3 4 4 4 6 4 3 8 6 5 4 2 4 6 6 2 3 4 2 5
32 30 24 26 36 40 40 41 40 39 40 30 17 22 6 3 5 14 22 20 10 5 5 7 4 3 6 2 3 3 3 7 6 9 4 3 3 5 2 2 7 6 5 1 6 6 3
28 24 24 25 32 35 36 38 36 34 42 29 23 25 6 3 6 8 10 8 6 6 6 6 2 4 3 4 4 3 3 5 4 7 7 6 6 3 3 2 6 5 3 6 6 3 5
25 24 25 28 31 34 36 37 38 37 36 36 16 21 17 4 5 12 17 10 5 10 7 11 8 7 5 4 2 4 2 2 3 2 3 1 6 5 6 5 7 2 7 6 6 5 4

GFSGBSN_925_spd_024.txt.gz
Wind_Speed
17 18 18 21 24 23 18 15 18 19 17 15 15 15 15 16 17 19 21 23 21 20 17 17 16 15 5 3 8 8 2 9 11 8 6 3 1 1 3 4 3 6 4 9 4 6 4
21 21 21 20 18 22 24 20 18 18 18 17 15 15 15 16 17 19 20 22 23 21 15 14 13 10 3 4 4 1 4 10 7 11 6 7 4 5 5 4 4 8 8 7 6 8 2
23 23 23 21 20 18 18 22 20 19 19 18 17 15 16 16 17 19 20 22 21 19 14 12 11 5 1 13 2 2 2 6 8 10 2 6 7 4 1 6 4 3 9 5 3 5 4
27 25 26 25 24 21 18 17 22 20 19 19 17 15 15 16 17 19 20 21 21 17 13 10 7 3 7 6 9 13 12 8 8 9 13 13 11 4 1 4 8 2 5 5 9 4 5
30 29 28 27 26 25 23 19 18 23 19 18 18 15 15 16 17 18 19 21 20 14 11 7 4 2 10 10 10 13 18 13 15 12 15 13 3 1 6 3 5 5 2 4 3 10 2
32 31 30 29 28 27 26 23 18 19 22 20 19 16 14 15 16 18 19 20 15 11 2 1 5 4 8 4 6 6 15 19 4 3 5 2 5 2 3 4 1 4 2 3 2 7 7
37 34 32 32 29 28 27 25 21 18 23 21 18 15 13 14 14 16 19 6 2 1 3 8 5 5 5 13 7 9 14 9 3 5 3 2 4 3 6 6 5 4 9 6 5 10 5
42 39 36 33 30 28 28 27 22 20 19 23 18 15 13 12 12 14 13 2 3 1 7 16 18 12 22 10 5 5 13 5 4 5 1 4 4 6 4 2 4 2 10 8 11 8 5
45 42 39 36 35 33 29 29 26 25 22 19 18 15 12 10 11 11 8 11 10 15 4 7 7 6 6 11 7 6 11 5 5 5 6 5 6 5 1 8 5 6 6 4 3 4 7
47 46 42 39 36 34 31 30 28 24 22 20 18 16 15 9 5 4 6 10 11 12 2 7 6 7 6 5 5 8 17 6 2 9 4 4 2 2 2 3 4 5 9 3 4 4 2
44 45 46 43 39 35 33 32 28 24 22 21 19 17 17 14 5 4 1 16 8 4 3 5 6 5 9 8 3 3 14 4 6 5 6 8 2 3 4 6 3 7 2 3 2 4 2
47 47 47 46 43 37 36 34 33 26 24 21 19 19 19 15 15 15 17 14 1 4 7 4 7 8 7 6 4 2 5 4 4 5 0 7 2 5 5 3 4 5 4 7 4 3 3
49 52 54 47 43 41 38 33 30 29 26 23 21 21 26 18 5 8 6 3 3 4 5 5 6 7 8 6 5 5 3 4 6 3 3 3 1 3 3 4 7 4 5 3 4 4 4
47 47 50 47 44 41 37 36 32 32 26 23 22 20 28 26 16 6 1 2 9 7 8 4 7 10 8 8 7 6 5 6 3 5 1 4 2 3 2 3 1 6 7 5 3 3 3
48 45 43 44 45 41 38 37 33 32 29 24 20 21 18 30 22 6 2 11 7 6 5 4 3 8 7 7 7 8 8 8 9 9 6 4 4 5 3 3 5 7 2 4 7 3 2
50 49 42 45 38 39 38 37 32 29 31 25 22 12 12 28 23 7 6 17 7 9 5 1 7 7 9 8 7 7 7 6 6 10 7 7 1 2 6 2 5 7 3 2 3 4 3
53 51 49 46 41 43 38 36 37 30 34 26 23 6 20 27 21 3 13 11 15 20 6 4 4 3 9 8 10 7 10 7 9 4 8 5 4 4 4 3 6 1 2 1 4 4 4
54 52 49 47 46 47 42 40 37 40 37 34 12 9 31 36 7 7 15 12 10 20 7 7 5 9 9 10 8 8 8 8 8 11 11 8 6 4 10 15 4 4 7 6 5 4 0
55 52 49 46 44 44 44 43 41 42 43 33 7 5 29 32 12 12 8 20 17 12 6 6 6 7 4 7 6 6 6 2 4 6 7 7 1 2 6 5 3 7 6 4 5 4 6
55 52 51 47 46 48 42 43 40 42 46 35 6 9 6 8 12 21 19 15 17 14 19 10 8 5 4 2 1 6 3 0 2 3 8 8 4 7 7 7 3 3 3 4 5 3 4
55 52 51 50 50 44 40 39 37 41 48 40 6 7 9 14 18 18 21 15 21 14 13 10 10 15 9 5 2 6 4 1 3 6 3 6 5 4 5 3 2 1 2 2 5 5 6
57 53 51 49 46 43 42 41 41 44 43 33 8 4 8 4 16 19 21 23 26 20 10 17 12 11 8 7 7 8 8 5 5 1 4 2 4 1 3 2 2 2 5 5 5 3 5
55 53 49 48 47 45 43 41 38 46 37 9 18 10 6 11 18 17 23 24 27 20 13 25 12 15 5 9 6 6 7 9 10 8 3 4 6 4 4 4 4 5 7 6 5 3 4
53 50 49 48 46 43 42 42 44 45 48 11 22 3 7 10 13 21 24 24 27 20 20 17 22 12 2 13 8 9 12 11 8 6 5 6 5 3 3 3 2 7 5 4 8 5 6
49 48 47 46 44 43 43 43 44 40 46 26 7 9 3 5 12 14 24 26 16 17 13 22 4 6 15 5 4 5 5 5 5 7 6 2 5 2 4 3 4 5 3 5 5 1 3
47 46 45 44 44 43 40 40 46 41 45 36 31 9 3 1 12 15 20 18 18 13 13 4 1 2 3 3 3 5 5 5 4 3 6 6 5 4 2 4 6 7 4 2 5 2 5
43 43 43 42 40 39 39 39 42 39 42 35 22 24 3 3 4 19 16 19 15 5 10 4 5 2 3 3 3 3 3 7 6 8 4 3 3 5 2 2 7 8 6 2 5 6 5
39 39 37 37 37 38 39 39 37 35 39 34 24 19 8 3 7 5 8 16 14 10 8 5 4 2 2 3 3 4 3 5 4 6 7 7 6 3 3 2 6 5 3 7 6 4 8
34 33 32 31 36 39 38 37 40 33 42 34 4 25 12 3 4 14 24 24 26 10 6 1 6 5 4 4 1 4 2 2 5 3 3 1 7 6 8 6 6 4 5 5 6 6 5

GFSGBSN_925_spd_027.txt.gz
Wind_Speed
20 19 19 20 22 23 23 21 17 17 18 17 15 14 14 14 15 17 18 19 20 21 20 18 17 16 7 4 7 7 6 7 12 10 5 3 3 2 3 3 2 5 5 6 6 7 3
22 22 22 21 21 21 20 21 21 19 19 19 17 16 15 15 15 16 18 19 20 20 18 15 14 12 3 5 3 3 1 10 7 8 7 5 4 5 5 5 4 4 3 1 1 3 4
25 25 24 24 22 20 20 19 20 21 19 15 17 17 16 15 16 17 18 20 20 20 17 12 10 8 2 13 2 0 1 5 6 10 4 7 4 2 4 6 2 3 4 3 2 2 4
30 29 28 26 25 24 21 20 19 19 20 17 19 18 15 15 16 17 19 20 20 20 15 8 5 3 7 5 6 11 12 14 10 11 9 7 5 3 3 4 5 2 4 3 1 6 1
34 31 30 29 28 26 25 22 21 19 20 19 19 17 16 15 15 17 19 20 23 18 9 4 1 3 9 8 9 12 16 9 7 8 8 10 2 1 5 3 5 5 2 1 4 7 2
38 36 33 32 30 30 26 24 24 21 20 21 19 17 16 16 15 16 19 22 17 7 1 2 1 3 7 2 5 4 9 19 2 2 4 2 5 2 3 4 2 2 3 3 2 2 4
41 38 38 34 32 30 30 28 25 23 20 18 20 17 16 16 14 15 16 7 3 1 3 7 4 4 5 12 4 3 7 11 3 3 1 4 5 3 3 4 1 3 2 6 4 6 7
38 41 41 40 36 32 29 27 26 23 21 18 18 15 15 15 12 13 12 2 2 2 7 12 15 9 18 4 4 4 15 5 5 5 1 4 2 5 4 2 4 8 5 9 8 3 10
42 44 42 41 40 37 34 29 26 25 23 20 17 15 13 14 11 11 7 8 11 9 3 7 6 6 5 12 7 6 9 5 4 5 5 5 4 4 3 3 3 4 4 6 5 2 5
48 42 44 41 42 39 37 33 30 26 25 21 18 16 14 13 7 7 5 4 11 11 3 6 5 7 7 7 4 11 10 6 2 10 6 5 2 1 3 2 4 5 3 7 4 3 2
49 45 41 41 43 41 40 37 33 28 27 22 19 17 17 19 4 4 5 10 11 2 3 4 4 3 8 9 3 6 10 4 8 6 5 7 6 3 4 4 4 8 5 1 1 3 5
49 49 44 41 46 43 42 39 36 31 26 23 20 19 18 22 18 11 3 7 2 5 7 4 7 7 6 6 3 2 5 3 4 4 2 4 2 3 5 3 5 4 2 7 4 3 2
52 50 48 45 43 40 42 41 38 31 29 23 21 21 22 20 5 10 8 1 1 4 4 5 6 7 6 6 5 4 5 6 6 4 4 2 2 3 1 3 3 7 5 3 4 4 4
54 52 50 46 43 44 41 42 39 33 29 29 22 21 21 26 15 5 5 3 10 7 7 5 3 5 9 6 7 6 6 5 3 2 3 5 5 5 2 4 3 2 4 4 3 2 3
56 53 51 48 45 45 45 43 42 36 28 26 21 20 19 27 23 11 2 11 7 6 5 4 2 5 4 4 6 6 8 8 9 8 7 4 4 1 3 2 2 2 1 3 6 3 3
58 55 52 49 46 47 48 46 40 36 33 28 20 12 19 20 27 7 6 19 8 5 3 4 9 5 8 8 7 7 8 5 6 10 5 7 2 2 3 1 2 2 6 1 2 3 3
60 57 54 49 43 46 53 50 43 36 36 31 16 5 19 25 21 3 13 15 17 14 3 3 3 4 8 8 10 7 8 5 7 5 6 6 5 4 1 4 8 1 2 2 4 5 4
60 59 56 50 44 44 45 48 44 39 38 34 10 8 29 36 7 7 15 7 4 19 5 4 4 5 5 8 8 9 10 10 8 10 9 8 6 4 10 4 4 2 2 5 4 4 1
61 62 59 53 48 47 46 43 46 40 40 28 7 6 28 32 12 14 8 18 7 9 10 7 5 6 1 6 5 7 8 4 9 8 9 8 2 2 7 5 3 3 5 4 4 3 6
61 63 60 56 53 51 54 48 45 43 42 29 4 8 7 10 17 18 20 14 22 15 13 1 3 3 2 4 3 7 6 2 5 3 3 10 4 7 7 8 4 2 3 4 5 3 3
61 63 62 58 54 54 52 54 52 46 44 33 5 8 7 15 21 20 20 14 22 14 15 9 5 7 2 3 1 4 3 2 4 6 1 4 5 4 3 3 4 6 5 6 6 5 6
60 62 62 59 56 54 52 56 54 55 48 31 6 5 8 2 17 26 18 23 25 24 9 11 15 7 12 9 8 8 6 4 6 2 4 2 3 4 4 1 2 4 7 6 5 4 7
54 62 61 58 54 52 54 55 54 55 47 12 19 5 2 12 20 18 30 24 24 18 17 10 20 13 6 12 10 6 3 5 10 10 5 5 7 4 5 1 1 6 8 8 7 6 6
55 62 60 57 54 55 53 53 51 50 54 13 22 4 4 11 14 25 23 23 23 27 18 19 20 5 5 6 4 6 9 12 9 6 4 7 6 3 3 3 1 7 2 5 6 3 4
61 61 58 56 55 55 55 54 52 52 49 37 7 10 2 3 15 14 22 25 16 18 15 19 6 9 9 4 4 4 5 6 4 7 6 4 5 3 5 4 4 4 4 7 6 3 2
59 57 56 55 55 55 54 51 47 45 46 42 33 12 5 4 13 8 20 18 18 17 9 7 14 2 6 3 3 6 5 6 3 2 5 6 6 4 3 4 8 8 4 4 5 2 5
55 55 53 53 53 51 48 47 44 43 45 38 21 25 9 3 4 12 12 15 12 12 8 5 6 3 3 3 3 3 3 5 7 11 6 3 3 5 2 3 7 7 5 5 5 7 7
49 48 47 47 46 45 45 43 41 42 41 36 27 14 5 2 5 4 3 7 11 14 12 6 4 1 3 5 4 4 4 6 4 5 7 7 7 3 3 3 7 7 5 8 6 2 7
42 43 43 42 41 41 40 37 37 37 39 33 15 19 15 3 4 15 21 30 15 12 13 4 6 6 6 4 1 3 3 2 4 4 2 2 7 6 8 6 4 4 3 4 6 8 7

GFSGBSN_925_spd_030.txt.gz
Wind_Speed
22 21 21 22 21 22 22 22 23 21 19 17 19 18 18 17 16 17 17 17 19 20 21 21 19 16 6 4 7 8 5 12 14 10 4 4 2 2 1 3 2 4 4 3 4 6 4
25 23 23 22 23 23 22 21 21 21 21 20 18 19 19 18 17 17 17 18 19 19 20 19 16 12 3 4 2 3 5 11 10 9 5 4 3 3 4 3 3 4 3 2 3 6 3
27 26 26 26 24 24 22 21 20 21 20 22 19 17 17 20 18 17 18 19 20 19 20 16 10 8 1 12 3 1 5 3 5 8 4 6 3 1 2 4 2 2 3 3 3 3 3
31 30 29 28 28 26 24 22 22 20 21 20 20 18 17 19 18 19 19 19 21 21 20 11 6 3 7 4 5 12 10 8 8 8 9 7 3 3 2 3 6 2 3 2 4 1 4
30 33 31 30 29 29 26 24 22 22 20 20 19 19 17 19 18 19 19 20 23 24 12 4 1 2 9 7 6 9 16 5 6 6 7 7 1 0 4 3 4 6 1 3 2 7 4
36 29 35 34 32 30 30 27 24 22 22 20 19 19 20 15 17 19 20 21 18 6 1 3 1 3 8 0 3 4 6 9 2 3 2 2 5 2 3 5 1 1 3 3 2 3 3
35 38 34 35 36 33 31 27 26 25 22 21 19 18 18 17 15 16 19 7 4 4 3 7 3 4 5 9 3 5 4 9 2 6 1 3 4 4 7 5 3 2 1 3 4 5 6
39 39 39 34 32 36 33 30 26 25 22 20 20 15 16 15 14 12 13 2 3 1 7 10 13 8 12 1 3 5 14 5 4 5 2 5 3 7 4 4 5 3 2 6 4 4 6
41 40 40 42 38 32 36 34 30 26 22 20 21 16 13 13 12 10 11 12 6 4 4 7 6 5 6 12 7 7 9 5 4 5 4 4 4 2 4 4 1 4 3 5 5 3 4
45 43 41 41 41 37 36 36 35 30 25 21 20 19 14 11 6 6 6 3 13 9 3 6 5 7 7 8 4 11 12 6 2 8 7 4 4 4 1 2 3 3 3 4 4 3 3
48 47 44 43 40 38 39 35 35 34 28 26 19 18 15 14 3 3 1 9 11 2 2 2 4 6 6 10 6 6 8 4 8 6 6 6 3 4 3 4 4 8 4 1 1 4 3
50 49 47 45 43 40 39 40 37 35 31 26 23 18 17 16 19 11 7 14 3 4 8 3 6 6 6 5 3 4 4 4 3 5 2 5 3 3 5 4 5 1 2 5 4 3 2
51 50 50 47 44 42 39 37 38 37 34 29 23 20 20 15 7 21 14 3 3 5 3 4 5 6 6 6 5 5 6 6 6 4 2 1 3 3 1 1 3 3 5 3 4 4 4
53 51 50 50 46 44 41 39 41 38 34 30 27 21 23 23 20 5 6 2 11 5 7 4 1 4 9 5 7 5 7 6 1 5 3 6 5 6 3 5 7 2 6 5 2 1 3
55 53 51 50 50 46 42 39 39 37 36 31 25 24 22 21 20 11 3 9 8 6 4 3 1 4 4 5 6 5 8 8 8 7 7 5 5 2 1 1 1 3 2 5 6 3 2
55 55 53 52 52 48 43 40 40 41 37 32 24 15 22 21 24 11 6 18 10 6 2 2 6 5 9 7 6 10 9 6 7 10 5 7 2 2 1 1 1 2 7 3 3 2 3
57 54 54 53 53 51 45 42 38 39 39 33 23 6 13 26 25 4 13 15 19 8 1 2 2 2 7 7 9 6 10 3 9 6 5 5 4 4 2 6 8 2 1 5 5 4 4
48 54 53 54 54 53 48 45 43 42 40 38 9 8 27 38 11 11 17 9 15 22 3 5 3 3 4 6 6 8 10 10 10 10 9 7 6 4 9 3 2 4 7 6 4 4 1
48 49 51 53 54 56 51 48 46 47 49 30 6 4 33 34 15 16 16 20 7 15 15 7 6 6 2 2 3 6 7 5 9 8 9 8 1 1 7 4 2 4 5 4 5 3 6
49 49 50 51 55 57 54 49 49 55 54 31 5 6 6 12 19 20 22 18 24 9 6 7 3 2 1 3 4 4 7 4 8 8 8 8 4 8 9 8 5 4 6 5 6 4 4
50 49 49 50 55 58 54 49 52 56 53 34 6 6 7 15 21 21 21 14 22 18 14 10 4 6 5 4 3 4 2 3 3 5 4 7 8 5 5 4 5 5 5 9 7 5 6
52 51 49 51 53 59 54 50 62 65 60 22 5 5 6 4 19 24 18 24 25 26 10 15 5 10 7 4 6 3 2 4 6 4 5 1 5 5 4 1 1 4 6 6 5 4 5
52 51 50 51 53 60 55 55 56 59 54 8 14 5 2 14 20 19 29 21 21 17 19 8 19 10 4 17 17 6 6 4 3 6 8 8 7 4 5 2 4 6 7 8 5 5 7
50 49 48 51 58 62 60 62 57 63 57 13 19 2 4 6 13 23 20 22 23 22 10 20 7 9 8 4 4 4 6 5 7 6 2 7 7 3 3 3 2 7 1 4 9 7 5
46 46 49 45 62 62 62 62 66 64 51 25 16 7 2 8 12 12 18 28 11 16 16 7 17 5 4 4 3 1 4 3 2 6 4 2 6 3 5 4 5 4 5 8 8 9 7
42 44 45 54 64 61 59 59 61 59 57 39 15 21 2 3 7 14 15 16 18 11 7 7 17 2 5 3 2 6 6 6 4 2 4 6 7 4 3 5 8 8 5 5 4 4 8
40 31 55 62 60 58 55 56 57 56 55 43 18 20 2 1 4 5 13 14 12 12 2 5 10 3 6 2 2 3 4 4 7 10 6 4 4 5 2 3 7 7 4 5 5 8 9
30 55 59 57 55 53 53 54 54 50 49 44 35 15 8 2 6 7 4 8 9 17 12 4 6 3 3 6 4 4 3 6 4 5 7 7 7 4 3 3 7 8 4 9 7 2 7
53 55 55 53 53 51 51 48 46 43 40 34 9 30 19 4 3 4 14 17 8 7 13 7 6 7 6 4 1 3 1 1 4 4 1 3 7 6 9 7 4 6 4 6 5 6 7

GFSGBSN_925_spd_033.txt.gz
Wind_Speed
21 20 19 18 18 17 17 18 18 18 19 20 19 18 19 19 19 18 19 19 20 21 21 22 22 18 7 3 6 3 3 14 14 10 6 4 3 2 2 2 1 5 5 3 3 5 3
24 24 22 21 20 19 18 18 19 18 18 18 19 20 18 19 19 19 20 20 19 21 21 21 20 13 2 3 3 1 8 15 9 9 6 5 2 3 2 3 3 3 3 1 2 5 3
23 27 26 24 23 22 20 20 18 18 19 18 17 19 18 18 17 19 20 21 21 22 21 22 16 8 1 11 3 7 10 6 10 9 4 4 2 1 0 3 2 1 2 3 4 3 3
30 27 24 28 26 25 23 21 20 19 20 20 18 17 18 18 18 18 20 22 22 24 25 21 9 3 7 3 6 9 10 6 8 10 5 3 2 2 2 4 4 1 3 2 2 2 2
30 31 32 24 28 28 25 24 22 20 20 20 18 17 16 18 16 19 20 23 26 26 16 4 4 1 8 3 6 9 15 5 6 7 6 3 2 0 2 2 2 6 1 0 1 9 6
30 30 29 33 30 25 30 26 25 22 19 20 20 18 16 17 13 17 18 23 26 10 2 3 1 2 7 4 2 4 10 10 3 4 2 1 3 1 2 1 2 2 1 2 2 5 3
33 30 30 30 35 30 25 30 27 23 20 19 18 18 15 14 14 15 14 11 4 1 4 7 3 4 4 5 0 6 7 9 3 3 3 1 2 6 7 5 5 3 2 2 3 1 4
36 36 32 31 33 31 31 25 29 26 22 19 18 16 15 12 10 13 9 2 2 1 9 12 15 10 12 0 3 4 14 6 4 4 4 1 5 5 4 3 5 2 2 2 2 3 5
39 40 37 35 31 32 32 30 23 29 26 20 17 16 14 11 9 10 10 11 5 5 4 7 6 6 6 12 7 6 12 5 4 6 6 4 3 4 4 4 5 5 2 2 4 1 2
42 41 40 39 38 35 33 32 32 28 29 25 20 15 14 9 4 8 5 4 7 3 3 7 4 7 6 8 5 9 13 6 3 10 7 4 2 4 4 5 4 2 4 1 1 2 1
46 44 42 42 40 39 37 33 35 35 30 28 24 17 14 11 1 4 5 7 12 4 4 2 3 2 4 9 8 8 11 4 8 7 6 4 4 4 4 5 4 4 2 2 1 2 2
48 47 45 43 43 42 39 38 33 38 35 29 27 22 15 13 16 9 8 12 0 2 7 3 6 5 5 4 2 4 5 4 4 5 1 4 1 4 5 3 3 3 2 4 3 2 2
50 50 47 45 44 44 42 38 36 33 40 28 28 23 22 17 6 22 15 4 3 6 3 3 4 5 6 3 3 3 9 8 7 5 4 0 3 2 2 3 2 3 2 2 1 1 2
52 51 49 47 45 45 44 41 37 33 32 32 28 24 24 25 17 10 10 3 10 6 10 2 1 3 9 5 4 2 10 10 2 5 4 6 3 6 4 4 5 4 5 4 3 3 2
52 52 51 49 47 46 46 43 38 36 32 34 26 26 22 26 24 12 5 9 8 7 5 3 1 3 4 4 6 3 6 13 10 7 6 5 4 1 1 2 3 4 3 2 6 1 2
56 54 52 51 49 48 48 45 41 37 33 29 26 16 21 20 27 12 7 18 10 8 4 3 8 5 9 6 6 11 7 5 7 8 4 7 2 1 2 3 4 2 7 2 1 2 2
55 56 55 51 51 50 49 48 44 39 35 31 22 6 10 23 26 8 14 13 17 8 3 3 3 3 4 6 8 6 9 2 7 8 4 5 3 1 1 4 7 3 3 3 3 2 3
53 55 55 55 52 51 51 51 48 42 37 34 9 7 24 37 13 8 20 12 5 15 5 3 2 2 4 5 6 7 13 10 10 12 10 6 4 4 7 0 2 3 5 5 3 4 0
43 44 49 54 53 51 52 54 52 46 44 33 5 5 28 36 14 15 19 24 9 9 13 7 7 5 1 0 3 6 6 5 9 9 10 7 2 2 2 2 2 3 4 3 5 3 7
44 42 44 48 48 53 53 58 57 50 50 33 5 9 6 11 19 24 19 18 26 8 11 9 3 3 1 2 2 2 5 3 7 5 2 13 4 6 10 8 4 4 6 7 4 3 4
48 47 46 46 44 46 55 61 60 55 55 29 7 6 5 14 19 22 20 17 24 14 15 13 7 8 4 5 2 4 2 2 2 6 5 5 7 6 5 5 5 6 6 11 9 6 7
51 51 49 47 44 47 53 62 62 58 57 23 6 5 3 10 26 27 17 21 25 26 15 17 14 16 14 4 8 5 5 2 3 1 7 2 4 5 4 3 5 4 7 10 9 3 8
52 50 52 51 49 48 45 66 64 60 59 10 11 4 6 15 20 18 26 19 18 17 17 11 10 5 14 21 9 3 2 4 5 4 3 4 7 4 4 1 3 5 7 11 5 5 6
49 45 54 50 48 48 46 65 64 60 63 19 12 6 5 9 13 19 20 26 21 21 11 16 9 9 4 5 2 2 5 2 6 2 4 6 5 2 3 1 6 4 1 2 11 6 9
40 50 51 48 46 47 46 62 65 61 64 24 26 7 3 11 12 12 19 25 18 17 18 9 7 6 3 3 1 4 3 2 1 1 4 3 5 3 5 5 4 3 5 7 7 14 10
39 44 45 44 45 47 43 62 62 59 59 30 25 6 4 8 7 10 17 16 21 8 11 6 3 5 6 2 2 6 5 4 3 3 2 4 3 3 3 5 10 5 4 6 4 12 8
35 39 43 41 45 46 50 58 55 62 53 29 14 16 6 3 3 3 12 15 13 13 7 4 6 4 3 1 2 4 4 7 3 5 6 3 2 6 3 4 6 6 4 6 6 13 7
28 41 40 44 45 47 57 56 55 67 53 26 13 19 10 1 2 6 5 5 10 16 8 5 5 5 2 6 4 3 3 5 5 4 5 7 7 4 3 2 8 8 6 10 6 2 5
33 37 39 44 43 52 58 59 57 58 52 30 10 16 13 2 2 11 11 15 10 21 13 10 5 7 7 4 3 2 3 1 6 6 0 4 6 6 9 7 2 10 4 7 4 4 5